TimeCST,TemperatureF,Dew PointF,Humidity,Sea Level PressureIn,VisibilityMPH,Wind Direction,Wind SpeedMPH,Gust SpeedMPH,PrecipitationIn,Events,Conditions,WindDirDegrees,DateUTC
12:15 AM,55.4,32.0,41,30.10,10.0,WSW,5.8,-,N/A,,Overcast,250,2014-02-26 06:15:00
12:35 AM,60.8,30.2,31,30.10,10.0,West,12.7,-,N/A,,Partly Cloudy,280,2014-02-26 06:35:00
12:55 AM,60.8,33.8,36,30.11,10.0,West,16.1,-,N/A,,Clear,280,2014-02-26 06:55:00
1:15 AM,59.0,35.6,42,30.11,10.0,West,16.1,-,N/A,,Clear,270,2014-02-26 07:15:00
1:35 AM,57.2,35.6,44,30.10,10.0,West,13.8,-,N/A,,Partly Cloudy,280,2014-02-26 07:35:00
1:55 AM,57.2,35.6,44,30.09,10.0,West,9.2,-,N/A,,Clear,280,2014-02-26 07:55:00
2:15 AM,55.4,35.6,47,30.09,10.0,West,6.9,-,N/A,,Mostly Cloudy,280,2014-02-26 08:15:00
2:35 AM,55.4,35.6,47,30.08,10.0,West,8.1,-,N/A,,Overcast,260,2014-02-26 08:35:00
2:55 AM,55.4,35.6,47,30.08,10.0,WNW,6.9,-,N/A,,Overcast,290,2014-02-26 08:55:00
3:15 AM,55.4,35.6,47,30.08,10.0,West,8.1,-,N/A,,Overcast,280,2014-02-26 09:15:00
3:35 AM,55.4,35.6,47,30.07,10.0,WNW,8.1,-,N/A,,Scattered Clouds,290,2014-02-26 09:35:00
3:55 AM,53.6,35.6,51,30.07,10.0,NW,6.9,-,N/A,,Mostly Cloudy,310,2014-02-26 09:55:00
4:15 AM,53.6,35.6,51,30.07,10.0,North,6.9,-,N/A,,Overcast,350,2014-02-26 10:15:00
4:35 AM,53.6,35.6,51,30.07,10.0,NNW,6.9,-,N/A,,Overcast,340,2014-02-26 10:35:00
4:55 AM,50.0,35.6,58,30.09,10.0,NNE,13.8,19.6,N/A,,Overcast,30,2014-02-26 10:55:00
5:15 AM,44.6,37.4,76,30.09,10.0,ENE,23.0,-,N/A,,Overcast,60,2014-02-26 11:15:00
5:35 AM,42.8,37.4,81,30.10,10.0,NE,19.6,-,N/A,,Overcast,50,2014-02-26 11:35:00
5:55 AM,42.8,39.2,87,30.11,6.0,NNE,19.6,-,N/A,,Overcast,30,2014-02-26 11:55:00
6:15 AM,41.0,39.2,93,30.13,8.0,NE,17.3,-,N/A,,Overcast,40,2014-02-26 12:15:00
6:35 AM,39.2,37.4,93,30.13,10.0,NE,16.1,-,N/A,,Mostly Cloudy,50,2014-02-26 12:35:00
6:55 AM,37.4,37.4,100,30.15,10.0,NE,18.4,21.9,N/A,,Mostly Cloudy,50,2014-02-26 12:55:00
7:15 AM,37.4,35.6,93,30.16,10.0,NE,10.4,-,N/A,,Overcast,40,2014-02-26 13:15:00
7:35 AM,35.6,33.8,93,30.17,10.0,NE,12.7,-,N/A,,Overcast,40,2014-02-26 13:35:00
7:55 AM,33.8,32.0,93,30.17,10.0,NNE,15.0,20.7,N/A,,Overcast,30,2014-02-26 13:55:00
8:15 AM,33.8,33.8,100,30.18,10.0,NNE,13.8,-,N/A,,Overcast,20,2014-02-26 14:15:00
8:35 AM,33.8,32.0,93,30.20,10.0,NNE,15.0,-,N/A,,Overcast,20,2014-02-26 14:35:00
8:55 AM,33.8,33.8,100,30.21,8.0,NNE,12.7,-,N/A,,Overcast,20,2014-02-26 14:55:00
9:15 AM,33.8,33.8,100,30.20,9.0,NNE,12.7,-,N/A,,Overcast,20,2014-02-26 15:15:00
9:35 AM,33.8,32.0,93,30.21,6.0,NE,16.1,-,N/A,,Overcast,50,2014-02-26 15:35:00
9:55 AM,33.8,32.0,93,30.21,2.5,NE,16.1,21.9,N/A,,Overcast,50,2014-02-26 15:55:00
10:15 AM,33.8,32.0,93,30.21,3.0,NE,17.3,21.9,N/A,,Overcast,50,2014-02-26 16:15:00
10:35 AM,33.8,33.8,100,30.21,5.0,NE,17.3,-,N/A,,Overcast,50,2014-02-26 16:35:00
10:55 AM,33.8,32.0,93,30.19,9.0,ENE,17.3,21.9,N/A,,Overcast,60,2014-02-26 16:55:00
11:15 AM,35.6,33.8,93,30.20,10.0,NE,15.0,-,N/A,,Overcast,50,2014-02-26 17:15:00
11:35 AM,35.6,33.8,93,30.20,10.0,ENE,15.0,-,N/A,,Overcast,60,2014-02-26 17:35:00
11:55 AM,37.4,33.8,87,30.20,10.0,ENE,9.2,-,N/A,,Overcast,60,2014-02-26 17:55:00
12:15 PM,39.2,35.6,87,30.18,10.0,NNW,8.1,-,N/A,,Overcast,340,2014-02-26 18:15:00
12:35 PM,41.0,33.8,76,30.17,10.0,WNW,3.5,-,N/A,,Mostly Cloudy,300,2014-02-26 18:35:00
12:55 PM,42.8,35.6,76,30.16,10.0,NW,3.5,-,N/A,,Clear,320,2014-02-26 18:55:00
1:15 PM,44.6,35.6,71,30.14,10.0,North,5.8,-,N/A,,Clear,360,2014-02-26 19:15:00
1:35 PM,46.4,33.8,62,30.13,10.0,Calm,Calm,-,N/A,,Clear,0,2014-02-26 19:35:00
1:55 PM,48.2,35.6,62,30.11,10.0,South,8.1,-,N/A,,Clear,180,2014-02-26 19:55:00
2:15 PM,50.0,35.6,58,30.10,10.0,SSW,4.6,-,N/A,,Clear,210,2014-02-26 20:15:00
2:35 PM,51.8,35.6,54,30.08,10.0,South,8.1,-,N/A,,Clear,180,2014-02-26 20:35:00
2:55 PM,53.6,37.4,54,30.07,10.0,South,5.8,-,N/A,,Clear,170,2014-02-26 20:55:00
3:15 PM,55.4,37.4,51,30.06,10.0,SSW,4.6,-,N/A,,Clear,210,2014-02-26 21:15:00
3:35 PM,57.2,37.4,48,30.05,10.0,SSW,6.9,-,N/A,,Scattered Clouds,200,2014-02-26 21:35:00
3:55 PM,59.0,37.4,45,30.05,10.0,Calm,Calm,-,N/A,,Mostly Cloudy,0,2014-02-26 21:55:00
4:15 PM,57.2,37.4,48,30.04,10.0,SSW,9.2,-,N/A,,Partly Cloudy,200,2014-02-26 22:15:00
4:35 PM,57.2,37.4,48,30.04,10.0,SSW,9.2,-,N/A,,Scattered Clouds,210,2014-02-26 22:35:00
4:55 PM,59.0,35.6,42,30.03,10.0,WSW,6.9,-,N/A,,Partly Cloudy,250,2014-02-26 22:55:00
5:15 PM,59.0,35.6,42,30.04,10.0,West,10.4,-,N/A,,Partly Cloudy,260,2014-02-26 23:15:00
5:35 PM,60.8,35.6,39,30.04,10.0,WSW,12.7,18.4,N/A,,Partly Cloudy,250,2014-02-26 23:35:00
5:55 PM,60.8,33.8,36,30.04,10.0,WSW,15.0,-,N/A,,Clear,250,2014-02-26 23:55:00
6:15 PM,59.0,33.8,39,30.05,10.0,WSW,11.5,-,N/A,,Clear,250,2014-02-27 00:15:00
6:35 PM,59.0,33.8,39,30.05,10.0,WSW,13.8,-,N/A,,Clear,250,2014-02-27 00:35:00
6:55 PM,55.4,37.4,51,30.05,10.0,SSW,9.2,-,N/A,,Clear,200,2014-02-27 00:55:00
7:15 PM,53.6,37.4,54,30.06,10.0,South,8.1,-,N/A,,Clear,180,2014-02-27 01:15:00
7:35 PM,51.8,35.6,54,30.06,10.0,South,8.1,-,N/A,,Clear,180,2014-02-27 01:35:00
7:55 PM,50.0,35.6,58,30.07,10.0,South,8.1,-,N/A,,Clear,190,2014-02-27 01:55:00
8:15 PM,48.2,35.6,62,30.07,10.0,South,9.2,-,N/A,,Clear,190,2014-02-27 02:15:00
8:35 PM,48.2,35.6,62,30.07,10.0,South,8.1,-,N/A,,Clear,180,2014-02-27 02:35:00
8:55 PM,44.6,33.8,66,30.09,10.0,ENE,5.8,-,N/A,,Clear,60,2014-02-27 02:55:00
9:15 PM,44.6,35.6,71,30.09,10.0,Calm,Calm,-,N/A,,Clear,0,2014-02-27 03:15:00
9:35 PM,42.8,33.8,70,30.09,10.0,East,4.6,-,N/A,,Clear,100,2014-02-27 03:35:00
9:55 PM,42.8,33.8,70,30.09,10.0,East,4.6,-,N/A,,Clear,100,2014-02-27 03:55:00
10:15 PM,39.2,32.0,75,30.09,10.0,NE,5.8,-,N/A,,Clear,50,2014-02-27 04:15:00
10:35 PM,39.2,32.0,75,30.09,10.0,NE,4.6,-,N/A,,Clear,40,2014-02-27 04:35:00
10:55 PM,37.4,32.0,81,30.10,10.0,NE,3.5,-,N/A,,Clear,40,2014-02-27 04:55:00
11:15 PM,35.6,30.2,81,30.09,10.0,NNE,3.5,-,N/A,,Clear,20,2014-02-27 05:15:00
11:35 PM,35.6,30.2,81,30.09,10.0,North,6.9,-,N/A,,Clear,350,2014-02-27 05:35:00
11:55 PM,35.6,30.2,81,30.09,10.0,North,6.9,-,N/A,,Clear,10,2014-02-27 05:55:00